Location: Spring Creek
(38.2870°N, 100.2160°W)
Time: 22:36:01
(UTC+00:00)

Resurs 1-4 Rocket - Pass Details

Date: 08 May 2021
Orbit: 800 x 814 km, 98.6° (Epoch: 21 June)

Event Time Altitude Azimuth Distance (km) Brightness Sun altitude
Rises 09:01:10 0° 3° (N) 3,316 6.1 -25.1°
Reaches altitude 10° 09:03:42 10° 354° (N) 2,382 5.1 -24.8°
Maximum altitude 09:08:21 33° 291° (WNW) 1,318 3.0 -24.2°
Enters shadow 09:08:29 33° 288° (WNW) 1,319 3.0 -24.2°
